Theta_e
339 338 338 335 334 334 333 329 323 333 331 331 333 330 326 321 326 335 339 339 337 335 321 313 314 315 320 322 321 322 324 328 332 328 322 318 317 316 316 330 331 332 332
337 337 337 334 334 333 332 325 329 337 329 327 336 340 338 337 338 341 340 338 333 320 313 314 315 318 321 323 322 322 323 325 323 319 317 315 313 312 312 313 314 322 330
336 337 337 334 335 337 331 323 336 338 331 324 334 338 338 339 341 339 338 333 321 313 314 316 319 320 320 321 323 322 322 322 320 320 317 313 313 312 311 311 311 311 314
336 337 337 336 336 337 327 325 336 338 319 314 327 340 340 340 339 339 333 323 313 314 315 318 319 319 320 320 321 322 321 321 320 319 319 315 315 317 318 317 315 311 309
336 337 337 336 337 334 324 328 338 333 315 311 318 337 341 341 339 336 329 314 314 315 316 318 318 318 319 319 319 320 319 319 319 318 319 319 318 319 320 318 317 317 317
336 338 337 338 337 333 323 337 337 322 314 310 311 325 333 337 333 326 316 314 315 316 316 317 318 318 318 319 319 319 319 320 319 318 318 319 320 321 323 323 322 318 317
337 337 338 338 335 331 325 339 336 318 313 311 313 313 319 323 317 315 315 315 316 316 316 317 317 318 318 318 319 318 318 319 319 318 317 317 318 320 323 324 326 323 319
338 337 338 338 335 331 324 337 329 321 315 312 314 315 315 315 315 316 316 316 317 317 317 317 317 317 318 318 318 318 318 318 318 318 318 318 319 319 321 322 321 323 320
337 338 338 337 333 325 324 335 334 327 319 314 313 315 316 316 316 316 316 317 317 317 318 318 317 317 317 318 318 318 317 317 318 319 320 320 321 321 322 322 322 322 322
337 337 338 336 332 323 322 333 337 332 327 319 315 314 315 315 316 316 317 317 317 318 318 318 318 318 318 318 317 317 317 319 320 321 322 323 323 324 324 324 323 323 323
338 338 338 336 333 325 321 326 336 338 334 328 320 316 316 315 316 316 316 317 317 317 317 317 317 317 318 317 317 318 319 321 321 322 322 323 324 325 325 325 325 325 324
339 340 338 338 335 330 321 322 330 337 338 335 324 319 317 317 317 317 317 317 317 317 317 317 317 317 318 318 319 319 324 323 323 323 324 325 325 327 327 327 326 325 325
340 341 339 337 335 331 323 319 324 330 340 336 327 322 320 319 317 317 318 318 317 317 317 317 318 319 320 320 320 325 325 324 325 326 327 328 329 329 329 326 325 323 323
340 340 341 338 335 333 326 320 322 325 333 337 332 325 320 320 320 320 319 318 317 318 318 319 320 321 323 327 327 327 327 327 327 329 329 329 329 329 327 328 327 326 325
331 335 339 338 337 336 332 327 319 326 327 330 334 333 325 320 324 322 321 319 318 317 317 319 322 322 325 328 329 328 328 328 329 329 329 329 329 327 327 325 325 325 325
327 326 325 331 331 336 335 334 329 325 323 327 333 332 321 318 323 325 322 319 321 319 321 322 323 325 327 329 329 329 329 329 329 328 328 328 328 327 327 326 326 325 325
328 328 328 327 327 328 335 334 335 334 332 331 324 323 325 325 329 329 328 322 323 323 322 323 324 326 328 329 329 329 330 328 328 328 327 327 327 328 328 325 326 326 325
331 330 325 326 328 327 331 333 333 333 333 334 333 332 333 332 334 333 330 328 324 324 324 325 326 328 330 330 329 329 329 328 327 327 327 325 326 326 326 327 328 326 322
330 328 326 327 327 326 331 331 331 332 333 332 332 334 334 334 334 334 332 329 325 326 330 331 332 332 331 330 329 329 329 329 327 326 326 325 325 323 324 324 325 323 323
328 328 329 331 326 329 329 329 327 328 330 329 330 336 335 334 334 334 334 332 330 329 331 332 332 330 330 330 329 329 327 327 328 324 326 324 326 324 323 324 326 322 322
331 333 331 332 329 331 328 328 328 330 329 328 331 336 335 333 333 333 334 334 332 332 332 331 331 331 330 329 329 327 327 326 322 319 317 318 320 320 321 325 322 321 321
330 332 332 333 333 333 330 329 329 327 329 329 331 335 335 333 333 333 334 333 332 332 332 331 331 330 328 329 328 328 326 324 318 318 319 320 321 319 324 324 320 320 320
326 331 331 331 332 332 333 332 332 332 332 333 334 334 334 333 334 333 333 333 331 331 331 331 330 330 329 329 330 329 326 323 321 318 319 321 321 321 321 321 320 320 319
322 322 328 331 332 332 332 332 333 332 332 333 331 332 331 333 332 331 331 331 331 331 330 328 329 331 329 330 329 324 319 317 318 318 319 320 320 321 321 321 319 319 317
321 321 320 323 328 328 329 329 329 329 330 329 327 330 331 331 332 332 330 330 330 329 326 324 323 321 321 325 313 311 311 311 312 316 316 315 320 319 319 320 319 318 317
321 320 321 321 322 327 326 327 328 328 329 329 330 330 328 329 328 329 330 330 329 325 324 324 321 321 318 312 311 311 311 311 312 313 316 316 318 318 317 318 318 318 317
Wind_Speed
29 26 24 22 19 16 13 11 13 16 15 16 18 17 18 19 18 18 19 15 15 12 11 15 16 18 19 19 19 20 20 20 18 16 15 15 16 15 15 15 13 15 17
31 28 25 21 18 16 13 13 18 16 16 16 18 20 21 21 20 21 18 17 14 13 16 17 18 18 18 19 20 20 20 18 18 16 16 16 16 16 15 15 13 12 15
31 28 24 21 19 16 14 17 19 17 14 15 18 20 22 23 21 19 17 14 14 17 18 19 19 19 19 18 18 19 18 17 16 17 17 17 17 18 18 17 16 14 11
30 27 24 22 19 17 15 19 19 17 12 15 20 21 22 20 19 18 14 13 17 18 19 19 19 18 18 18 18 17 16 15 14 15 15 16 17 17 18 18 17 16 14
29 26 24 21 19 17 16 19 19 14 12 15 21 23 22 18 19 16 12 17 19 19 19 18 17 17 16 16 16 14 13 13 13 13 14 13 13 15 15 16 16 16 16
27 23 22 21 19 17 19 19 18 14 14 16 20 22 21 18 14 14 19 20 19 18 17 16 15 14 14 13 13 12 12 12 12 12 12 12 11 12 13 14 15 16 16
25 23 21 20 18 17 21 18 16 14 16 18 19 21 21 18 19 21 22 21 19 18 17 15 14 12 11 10 10 10 10 10 10 11 11 11 11 12 12 13 13 15 16
24 23 21 19 17 17 21 19 14 15 17 18 20 21 22 22 23 22 21 20 19 17 15 13 12 10 9 8 8 8 8 8 8 9 10 10 11 11 12 12 13 13 14
23 22 21 19 17 17 21 21 16 15 16 18 19 20 21 21 21 21 20 19 17 15 13 11 9 8 7 5 5 6 6 7 7 8 9 10 10 11 11 11 13 13 13
23 22 22 18 16 17 20 23 19 16 14 15 17 18 19 19 19 18 18 17 15 13 11 9 8 6 5 4 3 3 4 5 6 7 8 9 10 11 12 12 12 12 12
22 22 20 18 16 16 18 22 21 18 14 13 15 16 17 17 17 15 14 13 12 11 9 8 7 6 4 3 2 2 3 4 4 5 6 7 8 9 10 10 11 10 11
24 23 20 17 16 16 17 20 23 21 18 16 15 15 15 15 14 13 12 11 10 9 9 8 7 6 4 3 2 1 1 2 3 4 5 6 7 9 10 11 13 10 11
24 23 21 17 16 15 15 18 21 23 20 17 15 14 13 13 14 13 12 10 9 9 8 7 6 5 4 3 3 2 0 1 3 5 6 7 7 9 10 12 12 15 13
27 25 21 17 16 15 13 14 18 21 22 18 17 15 12 11 12 11 11 10 10 10 9 8 7 6 5 3 3 2 1 2 3 4 5 6 8 9 11 12 15 16 14
19 13 15 14 15 15 14 13 15 18 19 19 18 16 13 11 10 10 10 10 11 11 10 9 8 7 6 5 4 3 3 3 3 5 7 10 11 10 11 11 11 13 14
13 9 7 12 3 17 18 17 14 14 15 17 18 17 15 13 11 11 10 11 10 10 10 10 9 8 6 5 5 4 5 4 6 8 9 11 13 15 13 16 12 14 15
21 21 19 22 27 14 20 20 18 18 17 16 16 15 13 12 11 10 10 11 11 10 11 10 8 7 6 5 5 6 5 7 9 11 14 15 16 17 17 15 15 13 18
28 27 26 22 28 16 24 21 17 18 18 17 16 15 14 13 10 10 10 10 11 11 11 9 8 7 5 6 6 5 8 11 14 13 17 19 16 18 18 17 17 13 10
33 28 26 18 25 18 25 23 18 19 19 19 20 16 14 13 12 10 10 9 12 12 10 8 7 5 6 6 8 10 13 15 16 17 20 20 21 18 19 17 15 9 8
32 30 24 23 22 20 22 23 27 40 25 24 24 18 16 17 15 13 10 11 12 13 11 9 7 8 10 11 13 16 17 18 20 22 24 24 24 22 18 12 9 8 8
32 32 30 27 26 23 29 32 31 23 27 33 29 25 20 21 19 18 12 11 15 14 11 9 11 11 13 15 16 18 18 23 21 19 17 13 13 11 9 9 7 10 11
29 27 26 29 31 34 33 36 26 22 32 29 29 29 24 22 20 21 16 13 13 13 13 12 13 13 14 15 17 20 20 20 6 6 11 10 8 10 6 9 10 10 13
10 16 25 31 31 31 34 36 35 36 30 31 30 29 25 23 23 23 21 21 19 17 16 15 14 16 18 19 19 16 11 8 18 14 11 10 9 7 9 10 11 13 15
10 8 13 21 28 25 23 26 23 24 25 20 18 22 25 25 23 22 22 25 22 20 15 13 15 17 19 22 22 21 20 22 16 10 9 8 9 10 13 15 16 17 14
15 16 18 17 16 16 18 21 17 19 25 20 20 22 19 22 23 23 23 23 22 14 11 12 17 18 20 21 21 22 21 19 19 19 23 18 17 16 19 18 20 21 20
10 12 19 22 18 17 17 19 18 20 21 21 20 22 19 25 24 22 23 23 17 14 15 17 21 20 22 22 22 21 21 21 19 17 17 20 20 20 21 20 21 21 22
Wind_Direction
176 170 167 168 166 165 166 150 145 143 136 126 122 127 134 151 150 147 145 143 134 121 111 111 107 102 101 98 97 100 99 97 91 85 70 63 64 66 70 81 79 69 55
166 169 168 168 167 166 163 148 145 148 148 136 129 127 135 139 143 144 142 136 127 120 118 114 110 107 104 101 97 97 96 92 83 71 63 60 62 64 62 60 63 76 74
167 168 166 167 166 163 160 154 150 154 146 146 140 132 134 136 143 141 136 129 127 125 120 115 112 110 104 104 99 94 90 83 74 67 62 60 64 63 61 58 53 53 57
167 166 166 167 166 164 161 158 156 154 149 153 152 139 136 141 141 141 133 130 132 127 123 120 115 110 106 100 95 92 88 80 70 63 60 62 62 60 57 54 51 48 45
169 166 168 169 167 162 161 159 158 157 152 156 160 157 146 144 150 148 138 138 134 129 128 124 117 109 102 97 93 89 82 73 66 60 59 59 56 53 50 48 47 45 42
167 165 169 170 167 165 161 161 162 156 151 153 161 164 166 166 156 151 143 140 137 133 131 127 119 109 99 94 88 81 75 69 63 57 58 57 53 48 45 43 42 40 38
165 168 170 171 170 170 164 163 168 159 150 148 152 163 171 171 151 144 143 142 141 139 137 133 126 117 108 98 90 80 75 67 61 56 56 54 49 43 39 36 34 34 33
170 172 173 172 175 178 169 164 169 161 150 147 147 148 147 147 146 145 145 145 145 144 141 137 131 123 116 107 96 82 72 63 58 54 54 52 47 43 36 34 31 30 29
176 174 176 175 181 177 171 165 166 166 154 149 148 148 148 149 149 149 149 149 149 147 144 141 137 132 127 113 95 79 70 58 52 48 46 47 43 39 35 31 26 23 23
178 177 179 179 185 179 173 173 168 178 166 154 153 153 153 154 156 156 155 154 154 152 150 149 147 143 135 121 99 76 58 52 48 46 43 38 33 30 23 19 16 14 13
182 180 184 183 187 182 178 177 174 179 184 167 163 161 159 159 159 161 161 162 162 162 162 161 161 161 153 135 110 75 47 40 42 36 35 30 22 20 18 10 5 4 3
187 184 186 190 192 188 184 184 183 181 190 184 173 167 168 167 167 169 171 172 173 174 175 175 175 173 174 175 170 171 73 36 41 32 25 20 13 10 7 2 2 358 357
193 190 191 196 198 197 191 189 190 191 191 194 184 180 180 181 182 182 184 187 190 191 191 187 186 190 194 204 204 184 233 15 27 21 24 24 12 3 360 1 359 357 351
198 194 195 197 199 200 200 198 197 198 200 202 196 195 192 193 194 197 198 202 204 205 203 202 201 198 197 191 192 212 291 341 7 20 17 2 3 350 346 343 344 347 339
193 205 200 199 203 206 205 205 203 205 207 213 212 213 213 210 211 208 216 219 214 212 213 210 206 205 205 214 230 255 286 306 327 336 333 322 315 322 314 308 315 325 325
234 220 224 246 274 229 214 205 212 211 213 216 219 224 232 225 222 222 232 223 219 212 212 210 208 210 218 226 248 272 295 301 315 319 321 313 308 301 306 309 309 313 310
185 214 221 225 240 269 239 229 215 211 209 216 223 224 225 222 229 235 238 229 224 218 212 216 220 222 231 251 273 294 300 313 311 303 305 302 299 297 293 299 293 301 298
205 207 208 223 216 271 243 234 247 253 243 228 218 232 234 225 232 236 235 237 225 223 225 226 233 240 258 284 307 305 309 300 297 302 297 306 303 296 293 291 293 291 282
199 197 201 197 194 212 225 226 242 256 250 250 247 234 240 238 240 247 244 237 226 225 226 230 238 253 279 297 301 298 294 288 295 291 293 295 297 298 297 295 286 292 275
208 209 217 204 224 225 229 219 243 246 250 252 253 235 238 245 246 253 254 242 237 226 223 230 251 264 267 277 287 291 290 290 291 296 288 293 291 294 293 295 274 284 286
221 225 223 219 225 210 198 214 228 214 234 234 240 238 238 243 246 239 245 248 242 236 226 227 248 262 270 282 292 291 293 295 294 298 298 300 301 299 284 261 265 276 283
229 230 233 231 237 229 219 224 216 216 235 229 250 237 247 246 241 236 232 243 246 236 230 233 246 264 276 281 286 295 306 311 324 301 300 293 292 299 245 237 256 276 285
217 228 230 236 236 235 241 237 235 239 245 240 241 239 238 245 236 238 236 227 231 229 232 239 255 266 278 280 282 283 298 288 300 305 297 285 285 272 246 240 255 273 279
230 229 233 236 241 244 243 249 259 259 260 267 262 262 256 242 239 241 239 233 230 234 241 256 269 273 282 282 283 285 277 275 283 293 298 293 279 259 244 251 265 269 285
257 260 255 252 244 243 243 255 250 255 255 256 258 258 255 252 243 247 248 241 229 225 247 268 270 274 286 287 286 288 288 283 275 266 280 286 270 261 263 258 260 263 271
262 263 247 245 249 252 252 253 260 263 263 259 257 255 250 246 250 256 243 238 232 234 263 264 276 281 277 283 287 288 285 285 280 275 266 272 278 274 265 260 260 262 262